TimeCDT,TemperatureF,Dew PointF,Humidity,Sea Level PressureIn,VisibilityMPH,Wind Direction,Wind SpeedMPH,Gust SpeedMPH,PrecipitationIn,Events,Conditions,WindDirDegrees,DateUTC
12:13 AM,37.4,33.8,87,29.85,10.0,NE,4.6,-,N/A,Rain,Light Rain,40,2012-10-11 05:13:00
12:54 AM,35.6,33.8,93,29.87,10.0,North,8.1,-,N/A,,Overcast,10,2012-10-11 05:54:00
1:13 AM,35.6,33.8,93,29.89,10.0,North,8.1,-,N/A,,Overcast,10,2012-10-11 06:13:00
1:33 AM,35.6,33.8,93,29.90,10.0,North,5.8,-,N/A,,Overcast,10,2012-10-11 06:33:00
1:54 AM,35.6,33.8,93,29.90,10.0,North,8.1,-,N/A,,Overcast,360,2012-10-11 06:54:00
2:14 AM,35.6,33.8,93,29.90,10.0,North,5.8,-,N/A,,Overcast,360,2012-10-11 07:14:00
2:54 AM,35.6,33.8,93,29.91,10.0,North,6.9,-,N/A,,Overcast,350,2012-10-11 07:54:00
3:14 AM,35.6,33.8,93,29.93,10.0,North,10.4,-,N/A,,Overcast,350,2012-10-11 08:14:00
3:33 AM,35.6,33.8,93,29.93,10.0,North,10.4,-,N/A,,Overcast,360,2012-10-11 08:33:00
3:54 AM,35.6,33.8,93,29.94,10.0,North,8.1,-,N/A,,Overcast,360,2012-10-11 08:54:00
4:14 AM,35.6,33.8,93,29.95,10.0,North,6.9,-,N/A,,Overcast,350,2012-10-11 09:14:00
4:33 AM,33.8,32.0,93,29.97,10.0,North,8.1,-,N/A,,Overcast,360,2012-10-11 09:33:00
4:54 AM,33.8,32.0,93,29.98,10.0,NNW,5.8,-,N/A,,Mostly Cloudy,340,2012-10-11 09:54:00
5:13 AM,33.8,32.0,93,29.99,10.0,NNW,6.9,-,N/A,,Mostly Cloudy,340,2012-10-11 10:13:00
5:34 AM,33.8,32.0,93,30.00,10.0,NNW,4.6,9.2,N/A,,Overcast,340,2012-10-11 10:34:00
5:54 AM,33.8,32.0,93,30.00,10.0,NNW,5.8,-,N/A,,Mostly Cloudy,330,2012-10-11 10:54:00
6:13 AM,33.8,32.0,93,30.01,10.0,NNW,5.8,-,N/A,,Scattered Clouds,330,2012-10-11 11:13:00
6:34 AM,32.0,30.2,93,30.02,10.0,NNW,6.9,-,N/A,,Scattered Clouds,330,2012-10-11 11:34:00
6:54 AM,33.8,32.0,93,30.04,10.0,NNW,11.5,-,N/A,,Mostly Cloudy,330,2012-10-11 11:54:00
7:13 AM,33.8,30.2,87,30.05,10.0,NNW,9.2,-,N/A,,Scattered Clouds,330,2012-10-11 12:13:00
7:34 AM,32.0,30.2,93,30.07,10.0,NW,5.8,-,N/A,,Clear,320,2012-10-11 12:34:00
7:54 AM,30.2,28.4,93,30.08,10.0,NW,4.6,-,N/A,,Clear,310,2012-10-11 12:54:00
8:14 AM,30.2,28.4,93,30.09,10.0,NW,5.8,-,N/A,,Clear,310,2012-10-11 13:14:00
8:33 AM,32.0,30.2,93,30.10,10.0,NW,5.8,-,N/A,,Clear,320,2012-10-11 13:33:00
8:53 AM,33.8,28.4,81,30.12,10.0,NW,9.2,-,N/A,,Clear,320,2012-10-11 13:53:00
9:14 AM,35.6,26.6,70,30.13,10.0,NW,11.5,-,N/A,,Clear,320,2012-10-11 14:14:00
9:33 AM,35.6,26.6,70,30.14,10.0,NW,11.5,16.1,N/A,,Clear,320,2012-10-11 14:33:00
9:54 AM,37.4,24.8,60,30.15,10.0,North,13.8,-,N/A,,Clear,350,2012-10-11 14:54:00
10:13 AM,37.4,24.8,60,30.16,10.0,North,12.7,18.4,N/A,,Clear,350,2012-10-11 15:13:00
10:33 AM,37.4,21.2,52,30.18,10.0,NNW,13.8,-,N/A,,Clear,340,2012-10-11 15:33:00
10:54 AM,37.4,21.2,52,30.19,10.0,NNW,13.8,18.4,N/A,,Clear,340,2012-10-11 15:54:00
11:13 AM,37.4,21.2,52,30.19,10.0,NNW,15.0,-,N/A,,Clear,340,2012-10-11 16:13:00
11:33 AM,37.4,21.2,52,30.20,10.0,NNW,12.7,19.6,N/A,,Clear,330,2012-10-11 16:33:00
11:54 AM,37.4,21.2,52,30.20,10.0,NNW,13.8,20.7,N/A,,Clear,330,2012-10-11 16:54:00
12:13 PM,39.2,21.2,49,30.21,10.0,NNW,10.4,16.1,N/A,,Clear,340,2012-10-11 17:13:00
12:54 PM,39.2,21.2,49,30.21,10.0,NW,15.0,29.9,N/A,,Clear,320,2012-10-11 17:54:00
1:13 PM,39.2,21.2,49,30.22,10.0,NW,17.3,21.9,N/A,,Clear,320,2012-10-11 18:13:00
1:33 PM,39.2,21.2,49,30.21,10.0,NW,13.8,20.7,N/A,,Clear,320,2012-10-11 18:33:00
1:54 PM,41.0,19.4,42,30.21,10.0,NNW,10.4,-,N/A,,Scattered Clouds,330,2012-10-11 18:54:00
2:13 PM,42.8,19.4,39,30.21,10.0,NNW,9.2,23.0,N/A,,Scattered Clouds,330,2012-10-11 19:13:00
2:34 PM,44.6,19.4,37,30.22,10.0,WNW,16.1,23.0,N/A,,Scattered Clouds,300,2012-10-11 19:34:00
2:53 PM,44.6,19.4,37,30.22,10.0,NNW,10.4,-,N/A,,Scattered Clouds,340,2012-10-11 19:53:00
3:13 PM,42.8,19.4,39,30.23,10.0,NNW,11.5,21.9,N/A,,Scattered Clouds,330,2012-10-11 20:13:00
3:53 PM,44.6,17.6,34,30.23,10.0,NW,16.1,19.6,N/A,,Scattered Clouds,310,2012-10-11 20:53:00
4:13 PM,42.8,17.6,36,30.24,10.0,WNW,13.8,21.9,N/A,,Clear,300,2012-10-11 21:13:00
5:34 PM,41.0,17.6,39,30.26,10.0,WNW,13.8,17.3,N/A,,Clear,300,2012-10-11 22:34:00
5:53 PM,41.0,17.6,39,30.27,10.0,NW,15.0,-,N/A,,Clear,310,2012-10-11 22:53:00
6:34 PM,37.4,17.6,45,30.28,10.0,NW,10.4,-,N/A,,Clear,310,2012-10-11 23:34:00
6:53 PM,35.6,19.4,52,30.29,10.0,NW,8.1,-,N/A,,Clear,310,2012-10-11 23:53:00
7:13 PM,32.0,19.4,60,30.30,10.0,NW,6.9,-,N/A,,Clear,310,2012-10-12 00:13:00
7:34 PM,30.2,19.4,64,30.31,10.0,NW,5.8,-,N/A,,Clear,310,2012-10-12 00:34:00
7:53 PM,30.2,19.4,64,30.31,10.0,NW,4.6,-,N/A,,Clear,310,2012-10-12 00:53:00
8:13 PM,28.4,19.4,69,30.31,10.0,NW,4.6,-,N/A,,Clear,310,2012-10-12 01:13:00
8:34 PM,28.4,19.4,69,30.32,10.0,WNW,4.6,-,N/A,,Clear,300,2012-10-12 01:34:00
8:53 PM,28.4,19.4,69,30.33,10.0,NW,6.9,-,N/A,,Clear,310,2012-10-12 01:53:00
9:13 PM,28.4,19.4,69,30.34,10.0,NW,4.6,-,N/A,,Clear,320,2012-10-12 02:13:00
9:34 PM,28.4,19.4,69,30.34,10.0,NW,5.8,-,N/A,,Clear,320,2012-10-12 02:34:00
9:53 PM,28.4,19.4,69,30.34,10.0,NNW,3.5,-,N/A,,Clear,340,2012-10-12 02:53:00
10:13 PM,28.4,19.4,69,30.35,10.0,Calm,Calm,-,N/A,,Clear,0,2012-10-12 03:13:00
10:53 PM,24.8,19.4,80,30.37,10.0,Calm,Calm,-,N/A,,Clear,0,2012-10-12 03:53:00
11:14 PM,24.8,19.4,80,30.38,10.0,Calm,Calm,-,N/A,,Clear,0,2012-10-12 04:14:00
11:33 PM,24.8,19.4,80,30.38,10.0,Calm,Calm,-,N/A,,Clear,0,2012-10-12 04:33:00
11:53 PM,23.0,19.4,86,30.38,10.0,Calm,Calm,-,N/A,,Clear,0,2012-10-12 04:53:00